GFSFLT2_250_rhum_021.txt.gz
RH
95 100 100 100 100 100 100 96 100 96 99 80 93 94 94 87 74 42 27 20 20 21 20 17 15 14 14 14 15 17 18 22
100 100 100 100 95 100 100 100 100 95 83 100 100 97 85 78 60 51 25 19 18 19 20 19 16 16 18 18 19 20 22 25
100 100 100 100 100 100 96 100 89 94 100 97 100 92 84 76 60 27 30 26 18 16 15 16 16 17 19 21 24 26 29 31
100 99 100 100 100 100 94 99 100 100 100 100 100 100 100 92 61 55 56 39 16 16 17 18 19 19 24 28 33 36 34 34
100 100 100 100 100 100 98 93 100 100 100 100 100 100 100 96 92 79 62 33 22 18 20 22 24 24 27 29 29 30 34 29
100 100 100 100 100 100 100 100 100 100 100 100 100 96 99 80 71 77 54 30 22 29 36 37 35 32 32 30 30 28 29 31
100 100 98 98 100 100 100 100 100 100 100 100 92 81 89 84 83 79 45 22 22 31 40 41 38 34 34 34 31 30 29 30
94 83 81 86 100 100 100 100 84 64 90 100 100 100 96 97 93 30 22 21 26 36 42 48 48 43 40 37 35 33 32 33
70 49 84 100 94 75 55 35 29 39 80 100 100 100 80 59 35 22 20 18 22 28 38 40 46 47 45 45 44 41 38 36
50 76 96 100 100 92 75 66 63 54 46 51 49 70 32 24 19 19 20 29 40 42 45 43 39 40 42 43 44 45 46 44
86 100 100 100 100 100 100 92 91 43 36 25 19 18 18 20 21 21 22 47 45 41 39 36 34 36 38 45 53 57 52 50
100 100 100 100 100 100 90 53 27 18 18 17 16 17 18 19 20 21 42 57 57 49 44 42 41 43 46 50 55 54 50 48
100 100 100 100 87 69 31 19 17 18 17 17 17 18 19 28 47 48 49 46 39 36 38 40 42 40 38 37 39 46 52 59
74 74 74 59 24 20 20 20 19 17 17 17 19 34 50 47 36 30 31 32 34 36 36 34 33 32 31 32 33 41 48 50
31 28 24 20 19 18 17 18 18 19 23 39 46 41 34 31 32 36 36 32 29 28 28 29 33 38 38 36 37 40 39 46
18 18 17 16 15 15 16 17 24 34 37 33 33 38 41 38 33 28 28 33 39 44 46 48 49 47 49 52 57 58 59 56
17 17 17 16 17 21 28 35 37 35 40 45 44 43 42 38 42 49 50 56 50 42 43 44 46 51 52 49 42 36 30 21
27 24 27 36 41 46 50 50 55 60 66 59 47 47 52 56 61 62 56 49 49 45 43 43 42 37 32 28 22 17 14 10
48 49 48 48 51 54 52 55 56 51 45 54 59 60 66 64 63 58 49 46 41 40 36 34 32 23 21 16 10 7 6 6
55 58 65 65 64 62 60 62 67 66 65 69 71 57 58 55 46 46 42 42 36 36 35 27 24 17 12 8 6 6 6 5

GFSFLT2_250_rhum_024.txt.gz
RH
90 90 100 100 100 100 90 78 87 82 80 100 75 79 89 98 100 98 92 84 80 71 46 42 42 22 15 14 14 15 15 15
100 100 100 100 99 97 97 98 100 97 100 85 96 99 100 96 100 98 93 90 89 77 48 50 31 15 15 16 17 19 18 17
100 100 100 100 100 85 97 100 100 100 100 95 100 100 100 100 99 99 100 98 89 69 50 52 33 23 18 17 23 22 22 24
100 99 95 93 96 100 100 100 99 100 100 100 100 98 100 100 100 100 96 87 68 56 55 57 42 22 20 26 27 29 29 24
97 99 100 90 100 100 100 100 100 100 100 100 100 96 98 100 99 95 94 84 72 69 68 56 26 23 22 27 28 27 28 28
100 79 73 96 100 99 98 97 100 100 100 100 100 100 99 91 92 87 82 74 61 58 52 26 22 21 28 36 34 34 30 29
98 100 98 100 98 100 100 100 100 100 92 100 94 92 70 39 40 56 71 75 86 63 58 31 21 19 23 26 31 33 34 34
100 90 100 100 98 92 100 98 88 68 72 89 67 53 60 74 76 93 83 54 51 49 42 22 20 20 39 43 40 40 38 36
100 98 80 87 88 83 91 97 62 52 58 62 58 68 74 84 58 31 28 21 21 21 20 20 20 21 48 54 46 42 40 36
97 92 88 84 89 100 100 100 87 71 85 91 75 77 83 34 23 20 21 20 19 19 19 19 26 37 48 59 56 52 50 48
60 67 79 86 100 100 100 100 100 95 98 84 93 90 44 19 18 19 18 18 18 18 22 36 45 51 49 48 46 50 54 56
53 82 100 100 100 100 100 100 100 100 100 98 67 23 19 18 18 17 17 18 24 39 50 50 45 39 39 42 44 44 43 42
87 100 100 100 100 100 100 100 100 100 88 56 20 19 18 17 17 20 26 38 46 50 50 46 42 40 40 44 46 43 42 46
85 82 77 85 96 96 86 74 43 33 32 20 22 20 22 27 36 46 47 44 40 35 33 36 38 37 36 36 35 36 39 38
37 36 34 29 28 29 27 23 22 22 25 26 31 44 53 55 51 47 44 39 33 32 32 33 33 32 32 37 41 42 41 43
21 22 25 31 28 23 24 26 28 29 37 48 52 49 44 41 40 36 30 30 33 33 32 34 45 51 57 57 51 44 44 42
38 45 43 35 34 43 42 41 43 44 44 39 35 37 38 40 39 36 36 38 39 50 64 64 57 50 47 44 40 37 31 25
37 36 32 31 31 30 31 35 37 39 40 41 42 45 44 43 48 47 57 75 71 62 55 48 42 39 34 31 27 22 21 15
37 35 37 36 37 40 41 41 42 43 45 48 51 54 58 64 74 74 66 60 54 48 43 37 34 31 26 22 18 13 9 7
42 44 45 45 44 42 39 38 40 48 54 61 72 81 78 68 62 60 55 48 45 40 31 27 23 20 16 13 10 7 6 5

GFSFLT2_250_rhum_030.txt.gz
RH
99 100 100 89 96 100 100 100 100 74 99 100 90 69 82 61 100 84 78 93 89 80 70 86 83 99 85 82 68 66 50 36
100 100 100 100 81 99 100 90 100 100 94 99 76 74 84 100 100 100 100 98 83 84 87 97 98 96 60 54 37 37 49 32
100 100 100 100 100 100 100 100 100 82 99 100 94 100 100 98 93 94 92 76 75 85 90 100 94 58 46 44 40 32 49 52
100 96 100 100 99 87 97 98 100 100 100 100 100 100 100 100 88 88 86 76 68 81 91 84 67 54 52 49 42 32 19 25
100 98 100 100 100 100 100 91 100 100 100 100 98 100 87 79 75 67 75 62 68 69 79 67 61 56 53 58 37 18 15 16
100 99 100 98 100 100 100 100 100 96 88 85 99 77 74 69 64 58 47 43 44 50 49 51 50 39 36 38 29 17 16 16
100 100 100 100 87 97 100 100 97 86 77 80 86 95 78 68 58 45 38 36 36 34 42 38 41 36 37 36 24 16 17 17
90 86 91 94 78 87 91 80 66 72 97 98 93 79 60 43 34 32 34 56 60 68 71 66 54 57 40 22 21 19 17 18
100 97 73 70 70 70 92 98 100 100 97 94 89 72 98 90 81 79 100 100 100 100 88 86 73 40 22 20 20 20 22 29
100 98 100 94 94 99 100 100 86 83 99 82 100 100 100 100 100 100 100 100 100 100 100 85 33 21 23 28 32 35 42 44
100 99 92 96 92 99 99 100 98 99 100 100 100 100 100 100 100 100 100 100 100 100 81 33 34 40 47 50 48 47 48 50
86 91 80 74 69 100 100 100 100 100 100 100 100 100 100 100 100 100 100 100 96 76 42 45 45 44 49 50 51 52 53 50
72 68 60 51 40 69 97 100 100 100 100 100 100 100 96 94 100 91 54 43 45 46 46 52 55 52 49 54 65 74 86 87
44 30 25 20 22 42 63 66 86 100 100 100 100 100 98 45 49 47 49 50 50 47 41 42 48 57 61 61 59 58 56 53
19 18 21 25 28 29 31 34 41 77 78 57 39 42 43 42 46 52 51 47 44 41 48 58 56 53 50 51 51 49 47 44
38 40 41 41 42 40 38 38 39 40 41 41 43 44 46 43 39 37 36 38 44 51 49 52 53 57 60 60 55 51 42 39
41 42 42 45 48 47 45 46 50 53 51 46 36 31 31 32 35 40 45 46 49 55 55 57 65 70 68 60 53 43 41 32
37 35 33 34 33 35 34 33 33 32 34 36 34 33 37 44 50 54 57 58 54 58 75 77 72 63 57 47 39 28 20 16
35 33 31 30 30 31 33 36 38 38 36 35 36 43 47 53 57 60 54 54 69 70 61 57 52 40 33 26 22 16 12 10
34 37 41 44 50 56 58 58 53 46 42 45 47 50 59 60 55 54 70 66 54 52 52 47 36 27 20 17 14 10 8 6

GFSFLT2_250_rhum_033.txt.gz
RH
88 100 100 100 100 100 100 100 100 100 100 96 99 96 100 89 77 98 100 99 100 99 88 70 62 73 81 94 96 91 68 51
100 100 100 100 100 100 100 100 100 100 100 93 92 100 100 100 100 100 100 79 92 76 68 72 67 80 64 100 94 80 62 56
100 100 100 100 100 92 100 99 100 100 94 96 100 85 100 100 100 99 85 76 67 71 66 58 54 62 68 71 60 55 52 52
100 100 100 100 100 94 88 84 87 95 94 86 100 100 100 100 100 95 83 77 59 62 58 46 42 38 36 35 50 42 40 40
100 100 92 100 100 100 100 96 70 100 100 99 100 100 99 100 89 78 87 87 69 66 48 31 37 32 26 26 26 33 37 31
100 100 100 100 100 100 100 100 100 100 100 100 100 95 85 90 87 98 81 80 60 47 28 30 38 52 73 48 33 43 40 30
100 100 100 100 100 100 100 99 100 96 87 77 70 82 90 83 70 77 68 54 42 29 34 39 86 100 91 100 82 78 66 32
100 100 94 98 94 96 100 98 97 83 86 77 86 92 84 79 66 51 44 39 50 86 75 62 100 93 98 87 96 100 81 62
100 100 100 97 100 100 81 67 78 81 92 79 85 80 75 80 99 98 98 100 97 100 100 100 100 100 100 100 100 91 68 50
84 82 91 97 84 72 86 91 100 100 100 99 100 100 80 92 100 100 100 100 100 99 100 99 100 100 100 100 88 53 40 40
100 100 100 96 100 99 99 100 98 94 81 100 100 100 100 100 99 95 81 90 91 100 97 94 100 95 44 54 43 37 36 36
100 100 91 78 68 62 62 69 77 100 94 100 100 100 100 90 100 100 100 99 100 98 95 77 72 48 48 47 48 46 47 55
87 76 67 62 57 55 55 51 44 40 47 59 54 82 100 100 100 100 100 100 100 91 54 48 44 39 41 42 54 61 62 59
68 58 49 41 28 22 21 24 28 32 33 65 65 76 56 43 48 62 83 66 38 40 41 36 39 47 52 52 52 57 63 61
49 61 29 33 34 33 33 34 34 35 35 35 36 36 37 39 39 37 38 40 38 34 36 49 53 55 58 59 60 54 49 51
27 31 32 33 33 32 32 32 31 32 34 38 38 40 37 35 34 36 36 34 40 48 49 50 57 57 56 53 50 45 41 40
34 34 34 32 31 33 34 36 40 44 46 42 44 38 40 43 40 36 42 46 46 54 57 58 54 51 50 48 48 50 50 45
33 32 34 34 35 38 39 42 52 61 78 86 83 74 62 45 41 43 50 54 58 57 54 53 53 53 49 43 37 30 25 23
38 46 53 56 57 63 68 72 76 74 80 72 64 60 53 50 52 54 51 53 53 52 51 56 52 45 42 36 24 20 19 15
42 47 51 55 65 79 81 82 78 76 70 67 60 57 58 54 51 50 54 58 58 62 55 59 52 45 35 26 21 16 12 10